Regional Weather Roundup
Issued by NWS

Current Version | Previous Version | Text Only | Print | Product List | Glossary On
Versions: 1 2 3 4 5 6 7 8 9 10 11 12 13 14 15 16 17 18 19 20 21 22 23 24 25 26 27 28 29 30 31 32 33 34 35 36 37 38 39 40 41 42 43 44 45 46 47 48 49 50
951
ASUS44 KLIX 191613
RWRLA
LOUISIANA WEATHER ROUNDUP
NATIONAL WEATHER SERVICE NEW ORLEANS LA
1000 AM CST SUN FEB 19 2017

NOTE: "FAIR" INDICATES FEW OR NO CLOUDS BELOW 12,000 FEET WITH NO
      SIGNIFICANT WEATHER AND/OR OBSTRUCTIONS TO VISIBILITY.
      SKY/WX - SKY CONDITION AND SIGNIFICANT WEATHER.
      TMP - AIR TEMPERATURE.    DP   - DEWPOINT TEMPERATURE.
      RH  - RELATIVE HUMIDITY.  PRES - PRESSURE.
      HX  - HEAT INDEX.         WCI  - WIND CHILL INDEX.

*  THESE STATIONS ARE NOT NWS OR FAA STATIONS AND ARE NOT UNDER
   NWS QUALITY CONTROL.

LAZ040-048-061>063-065-066-069-191700-
SOUTHEAST LOUISIANA

CITY           SKY/WX    TMP DP  RH WIND       PRES   REMARKS
N.O. AUDUBON   NOT AVBL
N.O. INTL ARPT CLOUDY    65  63  93 NE5       30.08S FOG
N.O. LAKEFRONT MOSUNNY   64  62  93 NE7       30.09R
N.O. DOWNTOWN*   N/A     67  63  87 NE6       30.09R
RESERVE*       CLOUDY    64  63  94 NE7       30.09R FOG
SLIDELL        SUNNY     68  63  84 E5        30.08F
BATON ROUGE    FOG       62  61  96 NE6       30.08R VSB 1
BOOTHVILLE     FOG       63  63 100 NE6       30.09R VSB 1/4
BELLE CHASSE   NOT AVBL
BOGALUSA*      CLOUDY    61  58  91 NE3       30.12S VSB 1/4
GALLIANO*      CLOUDY    70  67  90 E6        30.08R
NEW ROADS*     FOG       60  60 100 CALM      30.09R VSB 3/4
GONZALES*      CLOUDY    63  63 100 CALM      30.08R FOG
HAMMOND*       FOG       61  59  94 NE3       30.09S VSB 1
HOUMA*         FOG       66  66 100 NE7       30.07R VSB 1
PORT FOURCHON* SUNNY     70  68  94 E9        30.06S

$$

LAZ041-044-053-054-191700-
SOUTHWEST LOUISIANA

CITY           SKY/WX    TMP DP  RH WIND       PRES   REMARKS
LAKE CHARLES   CLOUDY    71  67  87 SE9       30.03R
LAFAYETTE      CLOUDY    67  65  93 VRB3      30.06S FOG
PATTERSON      CLOUDY    69  67  93 SE7       30.07R
SALT POINT       N/A     69  67  93 VRB7      30.04R
NEW IBERIA     CLOUDY    68  63  84 E7        30.06S
CHENAULT AIRPK NOT AVBL

$$

LAZ027-028-191700-
CENTRAL LOUISIANA

CITY           SKY/WX    TMP DP  RH WIND       PRES   REMARKS
FORT POLK      CLOUDY    68  65  89 SE6       30.04R
ALEXANDRIA INT PTSUNNY   67  61  81 SE10      30.04S
ALEXANDRIA     CLOUDY    65  61  87 S3        30.07R

$$

LAZ001-002-191700-
NORTHWEST LOUISIANA

CITY           SKY/WX    TMP DP  RH WIND       PRES   REMARKS
SHREVEPORT     CLOUDY    64  63  96 SE7       30.03S FOG
BARKSDALE AFB  CLOUDY    63  63 100 SE5       30.04R
DTN SHREVEPORT CLOUDY    65  61  87 S8        30.03S

$$

LAZ014-016-191700-
NORTHEAST LOUISIANA

CITY           SKY/WX    TMP DP  RH WIND       PRES   REMARKS
MONROE         CLOUDY    61  59  93 E6        30.09F
TALLULAH       MOSUNNY   65  58  78 SE6       30.10S

$$





USA.gov is the U.S. government's official web portal to all federal, state and local government web resources and services.